Location: Unspecified
(0.0000°N, 0.0000°E)
Time: 11:09:48
(UTC+00:00)

Vanguard 3 - Pass Details

Date: 26 September 2023
Orbit: 507 x 3241 km, 33.3° (Epoch: 06 December)

Event Time Altitude Azimuth Distance (km) Brightness Sun altitude
Rises 08:57:59 0° 224° (SW) 5,271 11.0 46.6°
Reaches altitude 10° 09:04:37 10° 197° (SSW) 4,924 11.1 48.3°
Maximum altitude 09:10:30 13° 173° (S) 5,135 11.5 49.7°
Drops below altitude 10° 09:17:18 10° 150° (SSE) 5,810 11.9 51.4°
Sets 09:27:09 0° 126° (SE) 7,164 12.4 53.9°
